Regional Weather Roundup
Issued by NWS Cleveland, OH

Home | Current Version | Previous Version | Text Only | Print | Product List | Glossary Off
Versions: 1 2 3 4 5 6 7 8 9 10 11 12 13 14 15 16 17 18 19 20 21 22 23 24 25 26 27 28 29 30 31 32 33 34 35 36 37 38 39 40 41 42 43 44 45 46 47 48 49 50

000
ASUS41 KCLE 250810
RWRCLE
OHIO REGIONAL WEATHER ROUNDUP
NATIONAL WEATHER SERVICE CLEVELAND, OH
400 AM EDT FRI JUL 25 2014

NOTE: "FAIR" INDICATES FEW OR NO CLOUDS BELOW 12,000 FEET WITH NO
SIGNIFICANT WEATHER AND/OR OBSTRUCTIONS TO VISIBILITY.

OHZ001>008-015>018-024>027-034-035-043-044-250900-
   NORTHWEST OHIO

CITY           SKY/WX    TMP DP  RH WIND       PRES   REMARKS
DEFIANCE       PTCLDY    53  50  89 CALM      30.07R
FINDLAY        CLEAR     53  49  86 CALM      30.06S
TOLEDO EXPRESS PTCLDY    52  51  97 CALM      30.06R
TOLEDO EXEC    PTCLDY    57  50  77 CALM      30.07R
LIMA           CLEAR     55  50  83 S3        30.06F
$$

OHZ009>014-019>023-028>033-038-089-250900-
   NORTHEAST OHIO

CITY           SKY/WX    TMP DP  RH WIND       PRES   REMARKS
CLE-HOPKINS    PTCLDY    54  50  86 S3        30.08S
CLE-LAKEFRONT  CLEAR     58  52  80 S7        30.05S
CUY CO. ARPT   NOT AVBL
LORAIN-ELYRIA  CLEAR     54  50  86 CALM      30.07S
ASHTABULA      CLEAR     50  47  89 CALM      30.06F
AKRON-CANTON   CLEAR     53  48  83 CALM      30.07F
WOOSTER        CLEAR     49  46  90 CALM      30.08S
MANSFIELD      CLEAR     50  49  96 CALM      30.08S
YOUNGSTOWN     CLEAR     50  49  96 CALM      30.07S
$$

OHZ042-051>053-060>062-070>072-077>081-250900-
  SOUTHWEST OHIO

CITY           SKY/WX    TMP DP  RH WIND       PRES   REMARKS
CINC-COVINGTON CLEAR     61  50  67 E6        30.07R
CINC-LUNKEN    CLEAR     54  54 100 CALM      30.08S
HAMILTON       CLEAR     53  52  96 CALM      30.07F
DAYTON         CLEAR     57  50  77 E5        30.08S
WRIGHT-PAT AFB CLEAR     53  50  90 NE2       30.07S
DAYTON GENERAL PTCLDY    55  51  86 E6        30.06S
WILMINGTON     CLEAR     56  49  77 E3        30.07S
$$

OHZ036-037-039>041-045>050-054>059-063>069-073>076-082>088-250900-
  CENTRAL AND SOUTHEAST OHIO

CITY           SKY/WX    TMP DP  RH WIND       PRES   REMARKS
COLUMBUS       CLEAR     57  51  80 CALM      30.06F
OSU AIRPORT    CLEAR     54  50  86 CALM      30.07S
BOLTON FIELD   CLEAR     52  51  98 CALM      30.07S
RICKENBACK AFB CLEAR     57  49  75 NE3       30.06S
NEWARK         CLEAR     52  50  93 CALM      30.07S
MARION         CLEAR     51  48  89 CALM      30.07F
LANCASTER      PTCLDY    53  51  93 CALM      30.07S
ZANESVILLE     CLEAR     53  50  89 CALM      30.07S
NEW PHILLY     CLEAR     50  49  96 CALM      30.08S
$$


USA.gov is the U.S. government's official web portal to all federal, state and local government web resources and services.